{"data":{"norad_id":58030,"epoch":"2026-05-25T02:37:51.676032Z","epoch_age_seconds":65556,"freshness":"FRESH","line1":"1 58030U 23156C   26145.10962588  .00000744  00000+0  37247-4 0  9991","line2":"2 58030  53.1606  83.4159 0001151  77.8085 282.3044 15.30198495147967","mean_motion":15.30198495,"eccentricity":0.0001151,"inclination_deg":53.1606,"raan_deg":83.4159,"arg_perigee_deg":77.8085,"mean_anomaly_deg":282.3044,"bstar":3.7247e-5,"rev_number":14796,"period_min":94.105438262113,"perigee_km":474.43074174132,"apogee_km":476.00838442214,"semimajor_km":6853.3565630817,"source":"CELESTRAK","updated_at":"2026-05-25T13:38:18.494467Z"}}